Regional Weather Roundup
Issued by NWS State College, PA

Home | Current Version | Previous Version | Graphics & Text | Print | Product List | Glossary On
Versions: 1 2 3 4 5 6 7 8 9 10 11 12 13 14 15 16 17 18 19 20 21 22 23 24 25 26 27 28 29 30 31 32 33 34 35 36 37 38 39 40 41 42 43 44 45 46 47 48 49 50
000
ASUS41 KCTP 302103
RWRCTP

REGIONAL WEATHER ROUNDUP
NATIONAL WEATHER SERVICE STATE COLLEGE PA
500 PM EDT SAT APR 30 2016

Note: "fair" indicates few or no clouds below 12,000 feet with no
significant weather and/or obstructions to visibility.

* = STATION THAT DOES NOT REPORT PRECIPITATION /E.G. RAIN...SNOW...ETC/
    THUNDER OR FOG.

PAZ002>004-007>009-013>016-020>023-029>032-302200-
WESTERN PENNSYLVANIA

CITY           SKY/WX    TMP DP  RH WIND       PRES   REMARKS
ERIE           PTSUNNY   56  44  64 NE13      30.09F
MEADVILLE      PTSUNNY   58  44  60 CALM      30.07F
FRANKLIN*      PTSUNNY   57  45  62 SE7       30.10S
NEW CASTLE     LGT RAIN  63  48  58 CALM      30.06F
BEAVER COUNTY  CLOUDY    63  46  55 CALM      30.05F
BUTLER*        CLOUDY    61  48  63 NE6       30.08F
PITTSBURGH INT CLOUDY    65  46  50 SE3       30.04F
PITTSBURGH     CLOUDY    65  47  52 CALM      30.04S
INDIANA*       MOSUNNY   57  48  72 SE13      30.13R
LATROBE        PTSUNNY   59  50  72 SE12G17   30.07S
WASHINGTON CO* CLOUDY    64  48  55 CALM      30.06S
$$

PAZ004>006-010>012-017>019-024>028-033>037-041-042-045-046-049>053-302200-
CENTRAL PENNSYLVANIA

CITY           SKY/WX    TMP DP  RH WIND       PRES   REMARKS
BRADFORD       CLOUDY    49  40  71 SE8       30.13F
DUBOIS         PTSUNNY   53  44  71 E10       30.11S
CLEARFIELD     CLOUDY    53  43  68 E8        30.14S
JOHNSTOWN      LGT RAIN  50  43  77 SE10      30.11R
ALTOONA        CLOUDY    51  45  79 SE8       30.15S
STATE COLLEGE  CLOUDY    54  45  71 E7        30.15F
WILLIAMSPORT   CLOUDY    56  41  57 E5        30.17S
SELINSGROVE    CLOUDY    56  43  61 SE3       30.18S
FT INDIANTOWN  CLOUDY    56  43  62 SE5       30.18S
CAPITAL CITY   CLOUDY    59  44  57 E7        30.17F
HARRISBURG     CLOUDY    59  44  57 SE6       30.17S
YORK           CLOUDY    58  45  62 VRB5      30.17F
$$

PAZ038>040-043-044-047-048-054-055-060>062-067>071-302200-
EASTERN PENNSYLVANIA

CITY           SKY/WX    TMP DP  RH WIND       PRES   REMARKS
SCRANTON       CLOUDY    56  40  55 CALM      30.17S
MOUNT POCONO   CLOUDY    50  38  63 VRB5      30.17S
ALLENTOWN      CLOUDY    57  42  57 SW3       30.19S
QUAKERTOWN*    CLOUDY    57  41  54 CALM      30.20S
READING        CLOUDY    58  41  53 CALM      30.19R
LANCASTER      CLOUDY    56  45  66 E3        30.19R
COATESVILLE    CLOUDY    55  45  67 VRB5      30.21R
POTTSTOWN      CLOUDY    57  41  55 CALM      30.21R
BLUE BELL      CLOUDY    55  43  62 CALM      30.19R
DOYLESTOWN     CLOUDY    55  40  56 S5        30.19S
WILLOW GROVE   NOT AVBL
NORTH PHILA    CLOUDY    60  42  51 SE3       30.21R
PHILADELPHIA   CLOUDY    61  41  47 SE3       30.20S
$$



USA.gov is the U.S. government's official web portal to all federal, state and local government web resources and services.